Project,Study,Ord_Occ,Event_Num,Cast_ID,Date_Time_UTC,Date_Time_PST,Lat_Dec,Lon_Dec,Sta_ID,Line,Sta,Depth,Pressure,PrQ,Temp1,Temp1Q,Temp2,Temp2Q,TempAve,Salt1,Salt1Q,Salt1_Corr,Salt2,Salt2Q,Salt2_Corr,SaltAve_Corr,Ox1,Ox1Q,Ox1_CruiseCorr,Ox1_StaCorr,Ox2,Ox2Q,Ox2_CruiseCorr,Ox2_StaCorr,OxAve_StaCorr,Ox1uM,Ox1uM_CruiseCorr,Ox1uM_StaCorr,Ox2uM,Ox2uM_CruiseCorr,Ox2uM_StaCorr,OxAveuM_StaCorr,FluorV,FluorQ,EstChl_CruiseCorr,EstChl_StaCorr,ISUSV,ISUSQ,EstNO3_CruiseCorr,EstNO3_StaCorr,SigThetaTS1,SigThetaTS1Q,SigThetaTS2,SigThetaTS2Q,BAT,XMiss,TransQ,pH,pHQ,SPAR,SPARQ,PAR,PARQ,PoT1,PoT2,DynHt,SVA,OxSat1,OxSat2,BTL_Depth,BTL_Temp,SaltB,OxB,OxBuM,Chl-a,Phaeo,NO3,NO2,NH4,PO4,SIL
CalCOFI,2101RL,025,,2101_025u,22-Jan-2021 02:40:05,21-Jan-2021 18:40:05,32.64890,-119.48370,090.0 053.0,090.0,053.0,517.000,521.312,,6.1046,,6.1049,,6.1048,34.2898,,34.2956,34.2864,,34.2884,34.2920,,,,,,,,,,,,,,,,,0.0326,,,, ,, , ,26.9840,,26.9812,,0.6898,84.1600,,,,1.8474E+00,,1.0000E-12,,6.0587,6.0590,0.9084,113.737,,,,,,,,,,,,,,
CalCOFI,2101RL,025,,2101_025u,22-Jan-2021 02:40:07,21-Jan-2021 18:40:07,32.64888,-119.48372,090.0 053.0,090.0,053.0,516.000,520.302,,6.1070,,6.1075,,6.1073,34.2895,,34.2953,34.2859,,34.2879,34.2916,,,,,,,,,,,,,,,,,0.0322,,,, ,, , ,26.9835,,26.9806,,0.6898,84.1600,,,,1.8474E+00,,1.0000E-12,,6.0612,6.0617,0.9084,113.775,,,516,,34.2786,10.756,468.77,,,,,,,
CalCOFI,2101RL,025,,2101_025u,22-Jan-2021 02:40:52,21-Jan-2021 18:40:52,32.64875,-119.48382,090.0 053.0,090.0,053.0,515.000,519.292,,6.1046,,6.1053,,6.1050,34.2899,,34.2957,34.2862,,34.2882,34.2920,,,,,,,,,,,,,,,,,0.0325,,,, ,, , ,26.9841,,26.9811,,0.6898,84.1596,,,,1.8703E+00,,1.0000E-12,,6.0589,6.0596,0.9134,113.701,,,,,,,,,,,,,,
CalCOFI,2101RL,025,,2101_025u,22-Jan-2021 02:41:14,21-Jan-2021 18:41:14,32.64870,-119.48386,090.0 053.0,090.0,053.0,514.000,518.283,,6.1023,,6.1028,,6.1026,34.2902,,34.2960,34.2865,,34.2885,34.2923,,,,,,,,,,,,,,,,,0.0326,,,, ,, , ,26.9846,,26.9816,,0.6898,84.1600,,,,1.8475E+00,,1.0000E-12,,6.0567,6.0572,0.9168,113.635,,,,,,,,,,,,,,
CalCOFI,2101RL,025,,2101_025u,22-Jan-2021 02:41:17,21-Jan-2021 18:41:17,32.64870,-119.48388,090.0 053.0,090.0,053.0,513.000,517.273,,6.1034,,6.1040,,6.1037,34.2900,,34.2958,34.2864,,34.2884,34.2921,,,,,,,,,,,,,,,,,0.0324,,,, ,, , ,26.9843,,26.9813,,0.6898,84.1600,,,,1.8474E+00,,1.0000E-12,,6.0579,6.0585,0.9168,113.650,,,,,,,,,,,,,,
CalCOFI,2101RL,025,,2101_025u,22-Jan-2021 02:41:21,21-Jan-2021 18:41:21,32.64870,-119.48390,090.0 053.0,090.0,053.0,512.000,516.264,,6.1059,,6.1066,,6.1063,34.2896,,34.2954,34.2859,,34.2879,34.2917,,,,,,,,,,,,,,,,,0.0323,,,, ,, , ,26.9836,,26.9806,,0.6894,84.1694,,,,1.8474E+00,,1.0000E-12,,6.0605,6.0613,0.9168,113.702,,,,,,,,,,,,,,
CalCOFI,2101RL,025,,2101_025u,22-Jan-2021 02:41:22,21-Jan-2021 18:41:22,32.64868,-119.48390,090.0 053.0,090.0,053.0,511.000,515.254,,6.1087,,6.1069,,6.1078,34.2891,,34.2949,34.2859,,34.2879,34.2914,,,,,,,,,,,,,,,,,0.0328,,,, ,, , ,26.9828,,26.9806,,0.6898,84.1600,,,,2.3405E+00,,1.0000E-12,,6.0634,6.0616,0.9168,113.765,,,,,,,,,,,,,,
CalCOFI,2101RL,025,,2101_025u,22-Jan-2021 02:41:23,21-Jan-2021 18:41:23,32.64868,-119.48390,090.0 053.0,090.0,053.0,510.000,514.244,,6.1149,,6.1103,,6.1126,34.2881,,34.2939,34.2853,,34.2873,34.2906,,,,,,,,,,,,,,,,,0.0327,,,, ,, , ,26.9813,,26.9797,,0.6900,84.1555,,,,1.9075E+00,,1.0000E-12,,6.0696,6.0651,0.9168,113.905,,,,,,,,,,,,,,
CalCOFI,2101RL,025,,2101_025u,22-Jan-2021 02:41:24,21-Jan-2021 18:41:24,32.64868,-119.48390,090.0 053.0,090.0,053.0,509.000,513.235,,6.1192,,6.1154,,6.1173,34.2873,,34.2931,34.2845,,34.2865,34.2898,,,,,,,,,,,,,,,,,0.0327,,,, ,, , ,26.9800,,26.9784,,0.6898,84.1601,,,,2.0913E+00,,1.0000E-12,,6.0740,6.0703,0.9168,114.010,,,,,,,,,,,,,,
CalCOFI,2101RL,025,,2101_025u,22-Jan-2021 02:41:25,21-Jan-2021 18:41:25,32.64866,-119.48392,090.0 053.0,090.0,053.0,508.000,512.225,,6.1226,,6.1211,,6.1219,34.2865,,34.2923,34.2833,,34.2853,34.2888,,,,,,,,,,,,,,,,,0.0324,,,, ,, , ,26.9790,,26.9767,,0.6898,84.1600,,,,1.8457E+00,,1.0000E-12,,6.0775,6.0760,0.9168,114.097,,,,,,,,,,,,,,
CalCOFI,2101RL,025,,2101_025u,22-Jan-2021 02:41:26,21-Jan-2021 18:41:26,32.64866,-119.48392,090.0 053.0,090.0,053.0,507.000,511.216,,6.1231,,6.1235,,6.1233,34.2863,,34.2921,34.2828,,34.2848,34.2885,,,,,,,,,,,,,,,,,0.0325,,,, ,, , ,26.9788,,26.9760,,0.6898,84.1600,,,,1.8474E+00,,1.0000E-12,,6.0781,6.0785,0.9168,114.104,,,,,,,,,,,,,,
CalCOFI,2101RL,025,,2101_025u,22-Jan-2021 02:41:26,21-Jan-2021 18:41:26,32.64866,-119.48392,090.0 053.0,090.0,053.0,506.000,510.206,,6.1234,,6.1240,,6.1237,34.2864,,34.2922,34.2829,,34.2849,34.2886,,,,,,,,,,,,,,,,,0.0320,,,, ,, , ,26.9788,,26.9760,,0.6898,84.1600,,,,2.4233E+00,,1.0000E-12,,6.0785,6.0791,0.9168,114.089,,,,,,,,,,,,,,
CalCOFI,2101RL,025,,2101_025u,22-Jan-2021 02:41:27,21-Jan-2021 18:41:27,32.64866,-119.48392,090.0 053.0,090.0,053.0,505.000,509.197,,6.1237,,6.1242,,6.1240,34.2862,,34.2920,34.2827,,34.2847,34.2884,,,,,,,,,,,,,,,,,0.0317,,,, ,, , ,26.9786,,26.9757,,0.6898,84.1600,,,,1.8613E+00,,1.0000E-12,,6.0789,6.0794,0.9168,114.092,,,,,,,,,,,,,,
CalCOFI,2101RL,025,,2101_025u,22-Jan-2021 02:41:28,21-Jan-2021 18:41:28,32.64865,-119.48392,090.0 053.0,090.0,053.0,504.000,508.187,,6.1234,,6.1241,,6.1238,34.2864,,34.2922,34.2829,,34.2849,34.2886,,,,,,,,,,,,,,,,,0.0330,,,, ,, , ,26.9788,,26.9759,,0.6895,84.1657,,,,1.8474E+00,,1.0000E-12,,6.0787,6.0794,0.9168,114.064,,,,,,,,,,,,,,
CalCOFI,2101RL,025,,2101_025u,22-Jan-2021 02:41:29,21-Jan-2021 18:41:29,32.64864,-119.48392,090.0 053.0,090.0,053.0,503.000,507.178,,6.1233,,6.1240,,6.1237,34.2864,,34.2922,34.2827,,34.2847,34.2885,,,,,,,,,,,,,,,,,0.0327,,,, ,, , ,26.9788,,26.9758,,0.6898,84.1602,,,,1.8474E+00,,1.0000E-12,,6.0786,6.0794,0.9168,114.049,,,,,,,,,,,,,,
CalCOFI,2101RL,025,,2101_025u,22-Jan-2021 02:41:30,21-Jan-2021 18:41:30,32.64864,-119.48392,090.0 053.0,090.0,053.0,502.000,506.168,,6.1225,,6.1237,,6.1231,34.2865,,34.2923,34.2827,,34.2847,34.2885,,,,,,,,,,,,,,,,,0.0325,,,, ,, , ,26.9789,,26.9758,,0.6898,84.1600,,,,1.8474E+00,,1.0000E-12,,6.0779,6.0792,0.9168,114.021,,,,,,,,,,,,,,
CalCOFI,2101RL,025,,2101_025u,22-Jan-2021 02:41:31,21-Jan-2021 18:41:31,32.64864,-119.48392,090.0 053.0,090.0,053.0,501.000,505.159,,6.1235,,6.1239,,6.1237,34.2863,,34.2921,34.2826,,34.2846,34.2884,,,,,,,,,,,,,,,,,0.0321,,,, ,, , ,26.9786,,26.9757,,0.6895,84.1664,,,,1.8474E+00,,1.0000E-12,,6.0791,6.0794,0.9168,114.035,,,,,,,,,,,,,,
CalCOFI,2101RL,025,,2101_025u,22-Jan-2021 02:41:32,21-Jan-2021 18:41:32,32.64864,-119.48392,090.0 053.0,090.0,053.0,500.000,504.149,,6.1273,,6.1257,,6.1265,34.2859,,34.2917,34.2826,,34.2846,34.2882,,,,,,,,,,,,,,,,,0.0328,,,, ,, , ,26.9779,,26.9754,,0.6898,84.1600,,,,1.8474E+00,,1.0000E-12,,6.0829,6.0813,0.9168,114.095,,,,,,,,,,,,,,
CalCOFI,2101RL,025,,2101_025u,22-Jan-2021 02:41:34,21-Jan-2021 18:41:34,32.64864,-119.48392,090.0 053.0,090.0,053.0,499.000,503.140,,6.1314,,6.1286,,6.1300,34.2854,,34.2912,34.2823,,34.2843,34.2878,,,,,,,,,,,,,,,,,0.0322,,,, ,, , ,26.9769,,26.9748,,0.6895,84.1667,,,,1.8474E+00,,1.0000E-12,,6.0871,6.0843,0.9168,114.174,,,,,,,,,,,,,,
CalCOFI,2101RL,025,,2101_025u,22-Jan-2021 02:41:35,21-Jan-2021 18:41:35,32.64864,-119.48392,090.0 053.0,090.0,053.0,498.000,502.130,,6.1374,,6.1345,,6.1360,34.2848,,34.2906,34.2814,,34.2834,34.2870,,,,,,,,,,,,,,,,,0.0321,,,, ,, , ,26.9756,,26.9733,,0.6896,84.1634,,,,1.8474E+00,,1.0000E-12,,6.0932,6.0903,0.9168,114.290,,,,,,,,,,,,,,
CalCOFI,2101RL,025,,2101_025u,22-Jan-2021 02:41:36,21-Jan-2021 18:41:36,32.64864,-119.48392,090.0 053.0,090.0,053.0,497.000,501.120,,6.1429,,6.1406,,6.1418,34.2841,,34.2899,34.2810,,34.2830,34.2865,,,,,,,,,,,,,,,,,0.0323,,,, ,, , ,26.9744,,26.9722,,0.6898,84.1599,,,,1.8474E+00,,1.0000E-12,,6.0988,6.0965,0.9168,114.401,,,,,,,,,,,,,,
CalCOFI,2101RL,025,,2101_025u,22-Jan-2021 02:41:37,21-Jan-2021 18:41:37,32.64864,-119.48392,090.0 053.0,090.0,053.0,496.000,500.111,,6.1466,,6.1457,,6.1462,34.2836,,34.2894,34.2805,,34.2825,34.2860,,,,,,,,,,,,,,,,,0.0320,,,, ,, , ,26.9735,,26.9712,,0.6898,84.1600,,,,1.8474E+00,,1.0000E-12,,6.1025,6.1016,0.9168,114.471,,,,,,,,,,,,,,
CalCOFI,2101RL,025,,2101_025u,22-Jan-2021 02:41:38,21-Jan-2021 18:41:38,32.64862,-119.48394,090.0 053.0,090.0,053.0,495.000,499.101,,6.1473,,6.1464,,6.1469,34.2833,,34.2891,34.2802,,34.2822,34.2857,,,,,,,,,,,,,,,,,0.0313,,,, ,, , ,26.9732,,26.9708,,0.6897,84.1627,,,,1.8474E+00,,1.0000E-12,,6.1033,6.1024,0.9168,114.490,,,,,,,,,,,,,,
CalCOFI,2101RL,025,,2101_025u,22-Jan-2021 02:41:39,21-Jan-2021 18:41:39,32.64862,-119.48394,090.0 053.0,090.0,053.0,494.000,498.092,,6.1443,,6.1446,,6.1445,34.2836,,34.2894,34.2802,,34.2822,34.2858,,,,,,,,,,,,,,,,,0.0322,,,, ,, , ,26.9738,,26.9711,,0.6898,84.1600,,,,1.8474E+00,,1.0000E-12,,6.1004,6.1007,0.9168,114.413,,,,,,,,,,,,,,
CalCOFI,2101RL,025,,2101_025u,22-Jan-2021 02:41:39,21-Jan-2021 18:41:39,32.64862,-119.48394,090.0 053.0,090.0,053.0,493.000,497.082,,6.1437,,6.1443,,6.1440,34.2837,,34.2895,34.2801,,34.2821,34.2858,,,,,,,,,,,,,,,,,0.0315,,,, ,, , ,26.9740,,26.9710,,0.6898,84.1600,,,,1.8474E+00,,1.0000E-12,,6.0999,6.1005,0.9168,114.383,,,,,,,,,,,,,,
CalCOFI,2101RL,025,,2101_025u,22-Jan-2021 02:41:40,21-Jan-2021 18:41:40,32.64862,-119.48394,090.0 053.0,090.0,053.0,492.000,496.073,,6.1437,,6.1443,,6.1440,34.2838,,34.2896,34.2801,,34.2821,34.2859,,,,,,,,,,,,,,,,,0.0325,,,, ,, , ,26.9740,,26.9710,,0.6896,84.1633,,,,1.8474E+00,,1.0000E-12,,6.1000,6.1006,0.9168,114.367,,,,,,,,,,,,,,
CalCOFI,2101RL,025,,2101_025u,22-Jan-2021 02:41:41,21-Jan-2021 18:41:41,32.64862,-119.48394,090.0 053.0,090.0,053.0,491.000,495.064,,6.1437,,6.1442,,6.1440,34.2837,,34.2895,34.2802,,34.2822,34.2859,,,,,,,,,,,,,,,,,0.0323,,,, ,, , ,26.9739,,26.9711,,0.6898,84.1600,,,,1.8474E+00,,1.0000E-12,,6.1001,6.1006,0.9168,114.363,,,,,,,,,,,,,,
CalCOFI,2101RL,025,,2101_025u,22-Jan-2021 02:41:42,21-Jan-2021 18:41:42,32.64862,-119.48394,090.0 053.0,090.0,053.0,490.000,494.054,,6.1433,,6.1443,,6.1438,34.2836,,34.2894,34.2801,,34.2821,34.2858,,,,,,,,,,,,,,,,,0.0326,,,, ,, , ,26.9739,,26.9709,,0.6898,84.1600,,,,1.9331E+00,,1.0000E-12,,6.0998,6.1007,0.9168,114.347,,,,,,,,,,,,,,
CalCOFI,2101RL,025,,2101_025u,22-Jan-2021 02:41:43,21-Jan-2021 18:41:43,32.64862,-119.48394,090.0 053.0,090.0,053.0,489.000,493.045,,6.1429,,6.1436,,6.1433,34.2837,,34.2895,34.2801,,34.2821,34.2858,,,,,,,,,,,,,,,,,0.0327,,,, ,, , ,26.9740,,26.9711,,0.6898,84.1600,,,,1.8473E+00,,1.0000E-12,,6.0995,6.1001,0.9168,114.322,,,,,,,,,,,,,,
CalCOFI,2101RL,025,,2101_025u,22-Jan-2021 02:41:44,21-Jan-2021 18:41:44,32.64862,-119.48394,090.0 053.0,090.0,053.0,488.000,492.035,,6.1527,,6.1500,,6.1514,34.2842,,34.2900,34.2803,,34.2823,34.2862,,,,,,,,,,,,,,,,,0.0330,,,, ,, , ,26.9731,,26.9704,,0.6898,84.1600,,,,1.8474E+00,,1.0000E-12,,6.1094,6.1066,0.9168,114.401,,,,,,,,,,,,,,
CalCOFI,2101RL,025,,2101_025u,22-Jan-2021 02:41:45,21-Jan-2021 18:41:45,32.64862,-119.48394,090.0 053.0,090.0,053.0,487.000,491.026,,6.1773,,6.1580,,6.1677,34.2864,,34.2922,34.2811,,34.2831,34.2877,,,,,,,,,,,,,,,,,0.0330,,,, ,, , ,26.9718,,26.9700,,0.6898,84.1600,,,,1.8474E+00,,1.0000E-12,,6.1339,6.1147,0.9168,114.545,,,,,,,,,,,,,,
CalCOFI,2101RL,025,,2101_025u,22-Jan-2021 02:41:46,21-Jan-2021 18:41:46,32.64862,-119.48394,090.0 053.0,090.0,053.0,486.000,490.016,,6.1954,,6.1771,,6.1863,34.2874,,34.2932,34.2829,,34.2849,34.2891,,,,,,,,,,,,,,,,,0.0317,,,, ,, , ,26.9702,,26.9690,,0.6898,84.1609,,,,1.8474E+00,,1.0000E-12,,6.1521,6.1338,0.9168,114.700,,,,,,,,,,,,,,
CalCOFI,2101RL,025,,2101_025u,22-Jan-2021 02:41:47,21-Jan-2021 18:41:47,32.64862,-119.48394,090.0 053.0,090.0,053.0,485.000,489.007,,6.2210,,6.1860,,6.2035,34.2896,,34.2954,34.2849,,34.2869,34.2912,,,,,,,,,,,,,,,,,0.0324,,,, ,, , ,26.9686,,26.9694,,0.6896,84.1637,,,,1.8474E+00,,1.0000E-12,,6.1777,6.1428,0.9168,114.860,,,,,,,,,,,,,,
CalCOFI,2101RL,025,,2101_025u,22-Jan-2021 02:41:48,21-Jan-2021 18:41:48,32.64862,-119.48394,090.0 053.0,090.0,053.0,484.000,487.997,,6.2321,,6.2249,,6.2285,34.2906,,34.2964,34.2862,,34.2882,34.2923,,,,,,,,,,,,,,,,,0.0324,,,, ,, , ,26.9680,,26.9654,,0.6898,84.1600,,,,1.8474E+00,,1.0000E-12,,6.1888,6.1816,0.9168,114.923,,,,,,,,,,,,,,
CalCOFI,2101RL,025,,2101_025u,22-Jan-2021 02:41:49,21-Jan-2021 18:41:49,32.64862,-119.48394,090.0 053.0,090.0,053.0,483.000,486.988,,6.2400,,6.2283,,6.2342,34.2905,,34.2963,34.2862,,34.2882,34.2923,,,,,,,,,,,,,,,,,0.0321,,,, ,, , ,26.9669,,26.9650,,0.6893,84.1699,,,,1.8474E+00,,1.0000E-12,,6.1968,6.1851,0.9168,115.015,,,,,,,,,,,,,,
CalCOFI,2101RL,025,,2101_025u,22-Jan-2021 02:41:50,21-Jan-2021 18:41:50,32.64862,-119.48394,090.0 053.0,090.0,053.0,482.000,485.978,,6.2436,,6.2277,,6.2357,34.2911,,34.2969,34.2865,,34.2885,34.2927,,,,,,,,,,,,,,,,,0.0324,,,, ,, , ,26.9669,,26.9653,,0.6895,84.1665,,,,1.8474E+00,,1.0000E-12,,6.2005,6.1846,0.9168,115.010,,,,,,,,,,,,,,
CalCOFI,2101RL,025,,2101_025u,22-Jan-2021 02:41:52,21-Jan-2021 18:41:52,32.64862,-119.48394,090.0 053.0,090.0,053.0,481.000,484.969,,6.2620,,6.2448,,6.2534,34.2924,,34.2982,34.2876,,34.2896,34.2939,,,,,,,,,,,,,,,,,0.0316,,,, ,, , ,26.9655,,26.9639,,0.6896,84.1641,,,,1.9115E+00,,1.0000E-12,,6.2189,6.2017,0.9168,115.141,,,,,,,,,,,,,,
CalCOFI,2101RL,025,,2101_025u,22-Jan-2021 02:41:53,21-Jan-2021 18:41:53,32.64862,-119.48394,090.0 053.0,090.0,053.0,480.000,483.960,,6.2745,,6.2672,,6.2709,34.2928,,34.2986,34.2889,,34.2909,34.2948,,,,,,,,,,,,,,,,,0.0330,,,, ,, , ,26.9642,,26.9621,,0.6895,84.1657,,,,1.8464E+00,,1.0000E-12,,6.2314,6.2241,0.9168,115.264,,,,,,,,,,,,,,
CalCOFI,2101RL,025,,2101_025u,22-Jan-2021 02:41:54,21-Jan-2021 18:41:54,32.64862,-119.48394,090.0 053.0,090.0,053.0,479.000,482.950,,6.2798,,6.2878,,6.2838,34.2922,,34.2980,34.2895,,34.2915,34.2948,,,,,,,,,,,,,,,,,0.0323,,,, ,, , ,26.9631,,26.9599,,0.6898,84.1599,,,,1.8474E+00,,1.0000E-12,,6.2368,6.2448,0.9168,115.367,,,,,,,,,,,,,,
CalCOFI,2101RL,025,,2101_025u,22-Jan-2021 02:41:54,21-Jan-2021 18:41:54,32.64858,-119.48396,090.0 053.0,090.0,053.0,478.000,481.941,,6.3058,,6.2997,,6.3028,34.2928,,34.2986,34.2894,,34.2914,34.2950,,,,,,,,,,,,,,,,,0.0338,,,, ,, , ,26.9602,,26.9583,,0.6898,84.1600,,,,1.8474E+00,,1.0000E-12,,6.2628,6.2567,0.9168,115.653,,,,,,,,,,,,,,
CalCOFI,2101RL,025,,2101_025u,22-Jan-2021 02:41:55,21-Jan-2021 18:41:55,32.64858,-119.48396,090.0 053.0,090.0,053.0,477.000,480.931,,6.3163,,6.3083,,6.3123,34.2923,,34.2981,34.2896,,34.2916,34.2949,,,,,,,,,,,,,,,,,0.0330,,,, ,, , ,26.9584,,26.9573,,0.6898,84.1600,,,,1.8474E+00,,1.0000E-12,,6.2734,6.2654,0.9168,115.813,,,,,,,,,,,,,,
CalCOFI,2101RL,025,,2101_025u,22-Jan-2021 02:41:56,21-Jan-2021 18:41:56,32.64858,-119.48396,090.0 053.0,090.0,053.0,476.000,479.922,,6.3213,,6.3182,,6.3198,34.2923,,34.2981,34.2889,,34.2909,34.2945,,,,,,,,,,,,,,,,,0.0321,,,, ,, , ,26.9577,,26.9555,,0.6898,84.1600,,,,1.8474E+00,,1.0000E-12,,6.2784,6.2753,0.9168,115.873,,,,,,,,,,,,,,
CalCOFI,2101RL,025,,2101_025u,22-Jan-2021 02:41:57,21-Jan-2021 18:41:57,32.64858,-119.48396,090.0 053.0,090.0,053.0,475.000,478.913,,6.3238,,6.3262,,6.3250,34.2920,,34.2978,34.2884,,34.2904,34.2941,,,,,,,,,,,,,,,,,0.0313,,,, ,, , ,26.9572,,26.9541,,0.6898,84.1600,,,,1.8474E+00,,1.0000E-12,,6.2810,6.2834,0.9168,115.909,,,,,,,,,,,,,,
CalCOFI,2101RL,025,,2101_025u,22-Jan-2021 02:41:58,21-Jan-2021 18:41:58,32.64858,-119.48396,090.0 053.0,090.0,053.0,474.000,477.903,,6.3274,,6.3294,,6.3284,34.2915,,34.2973,34.2881,,34.2901,34.2937,,,,,,,,,,,,,,,,,0.0316,,,, ,, , ,26.9563,,26.9534,,0.6900,84.1553,,,,1.8474E+00,,1.0000E-12,,6.2847,6.2867,0.9168,115.986,,,,,,,,,,,,,,
CalCOFI,2101RL,025,,2101_025u,22-Jan-2021 02:41:58,21-Jan-2021 18:41:58,32.64858,-119.48396,090.0 053.0,090.0,053.0,473.000,476.894,,6.3307,,6.3310,,6.3309,34.2912,,34.2970,34.2878,,34.2898,34.2934,,,,,,,,,,,,,,,,,0.0323,,,, ,, , ,26.9556,,26.9529,,0.6898,84.1600,,,,2.6342E+00,,1.0000E-12,,6.2880,6.2884,0.9168,116.038,,,,,,,,,,,,,,
CalCOFI,2101RL,025,,2101_025u,22-Jan-2021 02:41:59,21-Jan-2021 18:41:59,32.64858,-119.48396,090.0 053.0,090.0,053.0,472.000,475.884,,6.3324,,6.3327,,6.3326,34.2906,,34.2964,34.2874,,34.2894,34.2929,,,,,,,,,,,,,,,,,0.0325,,,, ,, , ,26.9550,,26.9523,,0.6898,84.1610,,,,1.8524E+00,,1.0000E-12,,6.2898,6.2901,0.9168,116.085,,,,,,,,,,,,,,
CalCOFI,2101RL,025,,2101_025u,22-Jan-2021 02:42:00,21-Jan-2021 18:42:00,32.64858,-119.48396,090.0 053.0,090.0,053.0,471.000,474.875,,6.3327,,6.3341,,6.3334,34.2901,,34.2959,34.2867,,34.2887,34.2923,,,,,,,,,,,,,,,,,0.0323,,,, ,, , ,26.9545,,26.9516,,0.6899,84.1573,,,,1.8474E+00,,1.0000E-12,,6.2902,6.2916,0.9168,116.119,,,,,,,,,,,,,,
CalCOFI,2101RL,025,,2101_025u,22-Jan-2021 02:42:02,21-Jan-2021 18:42:02,32.64856,-119.48396,090.0 053.0,090.0,053.0,470.000,473.866,,6.3314,,6.3348,,6.3331,34.2896,,34.2954,34.2858,,34.2878,34.2916,,,,,,,,,,,,,,,,,0.0333,,,, ,, , ,26.9543,,26.9508,,0.6900,84.1557,,,,2.3467E+00,,1.0000E-12,,6.2890,6.2924,0.9168,116.118,,,,,,,,,,,,,,
CalCOFI,2101RL,025,,2101_025u,22-Jan-2021 02:42:03,21-Jan-2021 18:42:03,32.64856,-119.48396,090.0 053.0,090.0,053.0,469.000,472.856,,6.3340,,6.3266,,6.3303,34.2884,,34.2942,34.2859,,34.2879,34.2911,,,,,,,,,,,,,,,,,0.0312,,,, ,, , ,26.9530,,26.9519,,0.6898,84.1601,,,,3.0762E+00,,1.0000E-12,,6.2917,6.2844,0.9168,116.231,,,,,,,,,,,,,,
CalCOFI,2101RL,025,,2101_025u,22-Jan-2021 02:42:04,21-Jan-2021 18:42:04,32.64855,-119.48396,090.0 053.0,090.0,053.0,468.000,471.847,,6.3378,,6.3401,,6.3390,34.2875,,34.2933,34.2839,,34.2859,34.2896,,,,,,,,,,,,,,,,,0.0330,,,, ,, , ,26.9518,,26.9486,,0.6902,84.1513,,,,3.4084E+00,,1.0000E-12,,6.2956,6.2979,0.9168,116.332,,,,,,,,,,,,,,
CalCOFI,2101RL,025,,2101_025u,22-Jan-2021 02:42:05,21-Jan-2021 18:42:05,32.64854,-119.48396,090.0 053.0,090.0,053.0,467.000,470.837,,6.3457,,6.3451,,6.3454,34.2863,,34.2921,34.2831,,34.2851,34.2886,,,,,,,,,,,,,,,,,0.0317,,,, ,, , ,26.9498,,26.9473,,0.6898,84.1602,,,,2.0021E+00,,1.0000E-12,,6.3036,6.3030,0.9168,116.515,,,,,,,,,,,,,,
CalCOFI,2101RL,025,,2101_025u,22-Jan-2021 02:42:06,21-Jan-2021 18:42:06,32.64854,-119.48396,090.0 053.0,090.0,053.0,466.000,469.828,,6.3560,,6.3520,,6.3540,34.2844,,34.2902,34.2819,,34.2839,34.2871,,,,,,,,,,,,,,,,,0.0315,,,, ,, , ,26.9469,,26.9455,,0.6899,84.1588,,,,1.8470E+00,,1.0000E-12,,6.3139,6.3099,0.9168,116.780,,,,,,,,,,,,,,
CalCOFI,2101RL,025,,2101_025u,22-Jan-2021 02:42:07,21-Jan-2021 18:42:07,32.64854,-119.48396,090.0 053.0,090.0,053.0,465.000,468.819,,6.3634,,6.3586,,6.3610,34.2826,,34.2884,34.2803,,34.2823,34.2854,,,,,,,,,,,,,,,,,0.0325,,,, ,, , ,26.9446,,26.9434,,0.6900,84.1563,,,,1.8474E+00,,1.0000E-12,,6.3214,6.3166,0.9168,116.996,,,,,,,,,,,,,,
CalCOFI,2101RL,025,,2101_025u,22-Jan-2021 02:42:08,21-Jan-2021 18:42:08,32.64854,-119.48397,090.0 053.0,090.0,053.0,464.000,467.809,,6.3872,,6.3698,,6.3785,34.2798,,34.2856,34.2785,,34.2805,34.2831,,,,,,,,,,,,,,,,,0.0329,,,, ,, , ,26.9392,,26.9404,,0.6898,84.1599,,,,2.1921E+00,,1.0000E-12,,6.3452,6.3279,0.9168,117.514,,,,,,,,,,,,,,
CalCOFI,2101RL,025,,2101_025u,22-Jan-2021 02:42:09,21-Jan-2021 18:42:09,32.64854,-119.48398,090.0 053.0,090.0,053.0,463.000,466.800,,6.3921,,6.3902,,6.3912,34.2790,,34.2848,34.2758,,34.2778,34.2813,,,,,,,,,,,,,,,,,0.0320,,,, ,, , ,26.9380,,26.9357,,0.6898,84.1600,,,,1.9902E+00,,1.0000E-12,,6.3502,6.3483,0.9168,117.620,,,,,,,,,,,,,,
CalCOFI,2101RL,025,,2101_025u,22-Jan-2021 02:42:10,21-Jan-2021 18:42:10,32.64854,-119.48398,090.0 053.0,090.0,053.0,462.000,465.791,,6.3710,,6.3739,,6.3725,34.2831,,34.2889,34.2787,,34.2807,34.2848,,,,,,,,,,,,,,,,,0.0325,,,, ,, , ,26.9439,,26.9401,,0.6898,84.1600,,,,1.8492E+00,,1.0000E-12,,6.3293,6.3322,0.9168,117.025,,,,,,,,,,,,,,
CalCOFI,2101RL,025,,2101_025u,22-Jan-2021 02:42:11,21-Jan-2021 18:42:11,32.64854,-119.48400,090.0 053.0,090.0,053.0,461.000,464.781,,6.3815,,6.3966,,6.3891,34.2811,,34.2869,34.2752,,34.2772,34.2821,,,,,,,,,,,,,,,,,0.0320,,,, ,, , ,26.9410,,26.9344,,0.6898,84.1600,,,,1.8474E+00,,1.0000E-12,,6.3398,6.3549,0.9168,117.294,,,,,,,,,,,,,,
CalCOFI,2101RL,025,,2101_025u,22-Jan-2021 02:42:12,21-Jan-2021 18:42:12,32.64854,-119.48400,090.0 053.0,090.0,053.0,460.000,463.772,,6.3998,,6.4035,,6.4017,34.2781,,34.2839,34.2745,,34.2765,34.2802,,,,,,,,,,,,,,,,,0.0322,,,, ,, , ,26.9362,,26.9328,,0.6898,84.1600,,,,1.8474E+00,,1.0000E-12,,6.3582,6.3619,0.9168,117.747,,,,,,,,,,,,,,
CalCOFI,2101RL,025,,2101_025u,22-Jan-2021 02:42:13,21-Jan-2021 18:42:13,32.64854,-119.48400,090.0 053.0,090.0,053.0,459.000,462.763,,6.4062,,6.4067,,6.4065,34.2775,,34.2833,34.2742,,34.2762,34.2798,,,,,,,,,,,,,,,,,0.0319,,,, ,, , ,26.9348,,26.9322,,0.6900,84.1551,,,,1.8474E+00,,1.0000E-12,,6.3646,6.3652,0.9168,117.868,,,,,,,,,,,,,,
CalCOFI,2101RL,025,,2101_025u,22-Jan-2021 02:42:14,21-Jan-2021 18:42:14,32.64854,-119.48400,090.0 053.0,090.0,053.0,458.000,461.753,,6.4065,,6.4076,,6.4071,34.2776,,34.2834,34.2740,,34.2760,34.2797,,,,,,,,,,,,,,,,,0.0322,,,, ,, , ,26.9349,,26.9319,,0.6898,84.1600,,,,1.8474E+00,,1.0000E-12,,6.3651,6.3661,0.9168,117.848,,,,,,,,,,,,,,
CalCOFI,2101RL,025,,2101_025u,22-Jan-2021 02:42:14,21-Jan-2021 18:42:14,32.64852,-119.48400,090.0 053.0,090.0,053.0,457.000,460.744,,6.4072,,6.4080,,6.4076,34.2775,,34.2833,34.2740,,34.2760,34.2797,,,,,,,,,,,,,,,,,0.0330,,,, ,, , ,26.9347,,26.9319,,0.6898,84.1600,,,,1.8474E+00,,1.0000E-12,,6.3658,6.3666,0.9168,117.853,,,,,,,,,,,,,,
CalCOFI,2101RL,025,,2101_025u,22-Jan-2021 02:42:15,21-Jan-2021 18:42:15,32.64852,-119.48400,090.0 053.0,090.0,053.0,456.000,459.735,,6.4074,,6.4080,,6.4077,34.2776,,34.2834,34.2741,,34.2761,34.2798,,,,,,,,,,,,,,,,,0.0322,,,, ,, , ,26.9347,,26.9319,,0.6899,84.1588,,,,1.8474E+00,,1.0000E-12,,6.3661,6.3667,0.9168,117.835,,,,,,,,,,,,,,
CalCOFI,2101RL,025,,2101_025u,22-Jan-2021 02:42:16,21-Jan-2021 18:42:16,32.64852,-119.48400,090.0 053.0,090.0,053.0,455.000,458.725,,6.4080,,6.4093,,6.4087,34.2777,,34.2835,34.2741,,34.2761,34.2798,,,,,,,,,,,,,,,,,0.0326,,,, ,, , ,26.9347,,26.9317,,0.6902,84.1516,,,,1.8474E+00,,1.0000E-12,,6.3668,6.3680,0.9168,117.821,,,,,,,,,,,,,,
CalCOFI,2101RL,025,,2101_025u,22-Jan-2021 02:42:17,21-Jan-2021 18:42:17,32.64852,-119.48400,090.0 053.0,090.0,053.0,454.000,457.716,,6.4118,,6.4145,,6.4132,34.2781,,34.2839,34.2746,,34.2766,34.2803,,,,,,,,,,,,,,,,,0.0323,,,, ,, , ,26.9346,,26.9314,,0.6898,84.1599,,,,1.8474E+00,,1.0000E-12,,6.3706,6.3734,0.9168,117.827,,,,,,,,,,,,,,
CalCOFI,2101RL,025,,2101_025u,22-Jan-2021 02:42:18,21-Jan-2021 18:42:18,32.64852,-119.48402,090.0 053.0,090.0,053.0,453.000,456.707,,6.4155,,6.4250,,6.4203,34.2783,,34.2841,34.2753,,34.2773,34.2807,,,,,,,,,,,,,,,,,0.0313,,,, ,, , ,26.9342,,26.9306,,0.6898,84.1600,,,,1.8474E+00,,1.0000E-12,,6.3745,6.3839,0.9168,117.848,,,,,,,,,,,,,,
CalCOFI,2101RL,025,,2101_025u,22-Jan-2021 02:42:19,21-Jan-2021 18:42:19,32.64852,-119.48402,090.0 053.0,090.0,053.0,452.000,455.698,,6.4230,,6.4295,,6.4263,34.2788,,34.2846,34.2756,,34.2776,34.2811,,,,,,,,,,,,,,,,,0.0325,,,, ,, , ,26.9336,,26.9303,,0.6898,84.1600,,,,1.8474E+00,,1.0000E-12,,6.3820,6.3885,0.9168,117.900,,,,,,,,,,,,,,
CalCOFI,2101RL,025,,2101_025u,22-Jan-2021 02:42:19,21-Jan-2021 18:42:19,32.64852,-119.48402,090.0 053.0,090.0,053.0,451.000,454.688,,6.4229,,6.4303,,6.4266,34.2784,,34.2842,34.2756,,34.2776,34.2809,,,,,,,,,,,,,,,,,0.0324,,,, ,, , ,26.9333,,26.9302,,0.6898,84.1600,,,,1.8474E+00,,1.0000E-12,,6.3820,6.3894,0.9168,117.914,,,,,,,,,,,,,,
CalCOFI,2101RL,025,,2101_025u,22-Jan-2021 02:42:21,21-Jan-2021 18:42:21,32.64852,-119.48403,090.0 053.0,090.0,053.0,450.000,453.679,,6.4260,,6.4259,,6.4260,34.2788,,34.2846,34.2751,,34.2771,34.2809,,,,,,,,,,,,,,,,,0.0328,,,, ,, , ,26.9332,,26.9303,,0.6898,84.1600,,,,1.8474E+00,,1.0000E-12,,6.3852,6.3851,0.9168,117.909,,,,,,,,,,,,,,
CalCOFI,2101RL,025,,2101_025u,22-Jan-2021 02:42:22,21-Jan-2021 18:42:22,32.64852,-119.48404,090.0 053.0,090.0,053.0,449.000,452.670,,6.4209,,6.4232,,6.4221,34.2786,,34.2844,34.2748,,34.2768,34.2806,,,,,,,,,,,,,,,,,0.0320,,,, ,, , ,26.9337,,26.9304,,0.6900,84.1548,,,,1.8474E+00,,1.0000E-12,,6.3802,6.3825,0.9168,117.845,,,,,,,,,,,,,,